| time (UTC) | temp F | wind direction | speed knots | gust knots | rain 1hr in | rain 24hr in | rain mn in | humidity % | barometer mb |
| 20260906121629 | 58 | 227 | 0.0 | 1.7 | 0.00 | 0.00 | 0.00 | 99 | 1000.0 |
| 20260906120124 | 57 | 147 | 0.0 | 0.0 | 0.00 | 0.00 | 0.00 | 99 | 999.7 |
| 20260906114624 | 56 | 0 | 0.0 | 0.0 | 0.00 | 0.00 | 0.00 | 99 | 999.7 |
| 20260906113120 | 56 | 207 | 0.0 | 0.0 | 0.00 | 0.00 | 0.00 | 98 | 999.6 |
| 20260906111615 | 56 | 186 | 0.0 | 0.0 | 0.00 | 0.00 | 0.00 | 98 | 999.3 |
| 20260906110111 | 56 | 227 | 0.0 | 0.0 | 0.00 | 0.00 | 0.00 | 97 | 999.3 |
| 20260906104607 | 57 | 172 | 0.0 | 0.0 | 0.00 | 0.00 | 0.00 | 97 | 999.1 |
| 20260906103107 | 57 | 159 | 0.0 | 0.0 | 0.00 | 0.00 | 0.00 | 96 | 999.2 |
| 20260906101602 | 57 | 174 | 0.0 | 0.9 | 0.00 | 0.00 | 0.00 | 95 | 999.2 |
| 20260906100058 | 57 | 211 | 0.0 | 0.9 | 0.00 | 0.00 | 0.00 | 95 | 999.1 |
| 20260906094558 | 58 | 179 | 0.0 | 1.7 | 0.00 | 0.00 | 0.00 | 93 | 999.0 |
| 20260906093056 | 58 | 122 | 0.9 | 0.9 | 0.00 | 0.00 | 0.00 | 94 | 999.0 |
| 20260906091554 | 58 | 151 | 0.0 | 0.9 | 0.00 | 0.00 | 0.00 | 94 | 999.2 |
| 20260906090051 | 59 | 126 | 0.9 | 2.6 | 0.00 | 0.00 | 0.00 | 93 | 998.9 |
| 20260906084550 | 58 | 71 | 0.9 | 1.7 | 0.00 | 0.00 | 0.00 | 94 | 998.8 |
| 20260906083050 | 59 | 169 | 0.0 | 0.9 | 0.00 | 0.00 | 0.00 | 93 | 998.4 |
| 20260906081549 | 59 | 96 | 0.0 | 0.9 | 0.00 | 0.00 | 0.00 | 93 | 998.3 |
| 20260906080049 | 59 | 35 | 1.7 | 1.7 | 0.00 | 0.00 | 0.00 | 93 | 998.2 |
| 20260906074544 | 59 | 98 | 0.9 | 0.9 | 0.00 | 0.00 | 0.00 | 92 | 998.3 |
| 20260906073040 | 59 | 171 | 0.9 | 1.7 | 0.00 | 0.00 | 0.00 | 92 | 998.2 |
| 20260906071538 | 60 | 178 | 0.0 | 0.0 | 0.00 | 0.00 | 0.00 | 91 | 998.2 |
| 20260906070037 | 61 | 162 | 0.0 | 0.9 | 0.00 | 0.00 | 0.00 | 90 | 998.2 |
| 20260906064533 | 61 | 149 | 1.7 | 2.6 | 0.00 | 0.00 | 0.00 | 89 | 998.2 |
| 20260906063031 | 61 | 180 | 0.0 | 1.7 | 0.00 | 0.00 | 0.00 | 89 | 998.3 |
| 20260906061529 | 62 | 112 | 0.9 | 1.7 | 0.00 | 0.00 | 0.00 | 89 | 998.3 |
| 20260906060027 | 61 | 128 | 0.9 | 1.7 | 0.00 | 0.00 | 0.00 | 89 | 998.2 |
| 20260906054524 | 62 | 119 | 0.9 | 0.9 | 0.00 | 0.00 | 0.00 | 91 | 998.2 |
| 20260906053022 | 61 | 169 | 0.0 | 0.0 | 0.00 | 0.00 | 0.00 | 91 | 998.0 |
| 20260906051521 | 62 | 185 | 0.0 | 0.0 | 0.00 | 0.00 | 0.00 | 90 | 997.8 |
| 20260906050018 | 63 | 179 | 0.0 | 0.0 | 0.00 | 0.00 | 0.00 | 89 | 998.1 |
| 20260906044513 | 64 | 182 | 0.0 | 0.0 | 0.00 | 0.00 | 0.00 | 88 | 997.8 |
| 20260906043012 | 64 | 187 | 0.0 | 1.7 | 0.00 | 0.00 | 0.00 | 87 | 997.7 |
| 20260906041507 | 65 | 176 | 0.0 | 0.0 | 0.00 | 0.00 | 0.00 | 88 | 997.3 |
| 20260906040003 | 66 | 156 | 0.0 | 1.7 | 0.00 | 0.01 | 0.01 | 88 | 997.5 |
| 20260906034500 | 66 | 94 | 0.9 | 1.7 | 0.00 | 0.01 | 0.01 | 89 | 997.4 |
| 20260906032957 | 65 | 184 | 0.0 | 0.0 | 0.00 | 0.01 | 0.01 | 90 | 997.3 |
| 20260906031455 | 66 | 166 | 0.0 | 1.7 | 0.00 | 0.01 | 0.01 | 89 | 997.1 |
| 20260906025951 | 67 | 178 | 0.0 | 0.9 | 0.00 | 0.01 | 0.01 | 87 | 997.1 |
| 20260906024450 | 68 | 162 | 0.0 | 0.0 | 0.00 | 0.01 | 0.01 | 86 | 997.1 |
| 20260906022946 | 69 | 179 | 0.0 | 2.6 | 0.00 | 0.01 | 0.01 | 83 | 996.9 |
| 20260906021443 | 70 | 180 | 0.9 | 1.7 | 0.00 | 0.01 | 0.01 | 83 | 996.6 |
| 20260906015938 | 71 | 174 | 0.9 | 0.9 | 0.00 | 0.01 | 0.01 | 84 | 996.5 |
| 20260906014438 | 71 | 169 | 0.0 | 0.9 | 0.00 | 0.01 | 0.01 | 84 | 996.6 |
| 20260906012936 | 72 | 204 | 0.9 | 1.7 | 0.00 | 0.01 | 0.01 | 85 | 996.5 |
| 20260906011431 | 73 | 103 | 1.7 | 1.7 | 0.00 | 0.01 | 0.01 | 83 | 996.3 |
| 20260906005930 | 72 | 164 | 0.0 | 0.9 | 0.00 | 0.01 | 0.01 | 87 | 995.8 |
| 20260906004428 | 72 | 204 | 0.0 | 0.0 | 0.00 | 0.01 | 0.01 | 91 | 995.7 |
| 20260906002925 | 72 | 171 | 0.0 | 0.0 | 0.00 | 0.01 | 0.01 | 90 | 995.8 |
| 20260906001421 | 73 | 174 | 0.0 | 0.0 | 0.00 | 0.01 | 0.01 | 91 | 995.8 |
| 20260905235918 | 73 | 193 | 0.0 | 0.0 | 0.00 | 0.01 | 0.01 | 88 | 995.8 |
| 20260905234414 | 75 | 195 | 0.0 | 0.9 | 0.00 | 0.01 | 0.01 | 85 | 996.0 |
| 20260905232914 | 77 | 188 | 0.0 | 0.0 | 0.00 | 0.01 | 0.01 | 79 | 995.7 |
| 20260905231414 | 77 | 136 | 0.0 | 0.9 | 0.00 | 0.01 | 0.01 | 79 | 995.6 |
| 20260905225913 | 77 | 103 | 0.9 | 1.7 | 0.00 | 0.01 | 0.01 | 78 | 995.5 |
| 20260905224411 | 77 | 330 | 1.7 | 1.7 | 0.00 | 0.01 | 0.01 | 78 | 995.8 |
| 20260905222908 | 76 | 39 | 2.6 | 2.6 | 0.00 | 0.01 | 0.01 | 79 | 995.7 |
| 20260905221406 | 77 | 88 | 0.9 | 3.5 | 0.00 | 0.01 | 0.01 | 77 | 995.5 |
| 20260905215902 | 77 | 254 | 1.7 | 3.5 | 0.00 | 0.01 | 0.01 | 79 | 995.1 |
| 20260905214402 | 76 | 289 | 2.6 | 7.0 | 0.00 | 0.01 | 0.01 | 80 | 995.1 |
| 20260905212859 | 76 | 58 | 1.7 | 3.5 | 0.00 | 0.01 | 0.01 | 83 | 995.2 |
| 20260905211354 | 75 | 145 | 1.7 | 3.5 | 0.00 | 0.01 | 0.01 | 85 | 995.2 |
| 20260905205849 | 74 | 59 | 0.9 | 3.5 | 0.00 | 0.01 | 0.01 | 87 | 994.9 |
| 20260905204346 | 74 | 143 | 0.9 | 2.6 | 0.00 | 0.01 | 0.01 | 89 | 995.2 |
| 20260905202842 | 73 | 84 | 0.9 | 5.2 | 0.00 | 0.01 | 0.01 | 90 | 995.2 |
| 20260905201339 | 72 | 76 | 0.9 | 2.6 | 0.00 | 0.01 | 0.01 | 93 | 995.4 |
| 20260905195839 | 71 | 199 | 0.9 | 3.5 | 0.00 | 0.01 | 0.01 | 97 | 995.4 |
| 20260905194336 | 70 | 109 | 0.9 | 2.6 | 0.00 | 0.01 | 0.01 | 98 | 995.5 |
| 20260905192832 | 69 | 354 | 3.5 | 3.5 | 0.00 | 0.01 | 0.01 | 98 | 995.7 |
| 20260905191332 | 69 | 356 | 0.9 | 2.6 | 0.00 | 0.01 | 0.01 | 98 | 995.8 |
| 20260905185829 | 69 | 178 | 0.9 | 1.7 | 0.00 | 0.01 | 0.01 | 98 | 995.7 |
| 20260905184329 | 69 | 327 | 2.6 | 2.6 | 0.00 | 0.01 | 0.01 | 97 | 995.8 |
| 20260905182823 | 69 | 255 | 0.9 | 1.7 | 0.07 | 0.01 | 0.01 | 97 | 996.1 |
| 20260905181318 | 69 | 176 | 1.7 | 3.5 | 0.00 | 0.00 | 0.00 | 96 | 996.0 |
| 20260905175813 | 70 | 53 | 1.7 | 2.6 | 0.00 | 0.00 | 0.00 | 94 | 995.7 |
| 20260905174311 | 70 | 304 | 1.7 | 2.6 | 0.00 | 0.00 | 0.00 | 93 | 995.7 |
| 20260905172808 | 71 | 13 | 1.7 | 5.2 | 0.00 | 0.00 | 0.00 | 92 | 995.7 |
| 20260905171305 | 71 | 37 | 3.5 | 6.1 | 0.00 | 0.00 | 0.00 | 91 | 995.7 |
| 20260905165801 | 71 | 78 | 1.7 | 6.1 | 0.00 | 0.00 | 0.00 | 92 | 996.0 |
| 20260905164258 | 71 | 43 | 3.5 | 5.2 | 0.00 | 0.00 | 0.00 | 90 | 995.5 |
| 20260905162757 | 72 | 349 | 0.9 | 7.0 | 0.00 | 0.00 | 0.00 | 90 | 995.8 |
| 20260905161255 | 72 | 103 | 1.7 | 2.6 | 0.00 | 0.00 | 0.00 | 90 | 995.6 |
| 20260905155755 | 71 | 34 | 3.5 | 5.2 | 0.00 | 0.00 | 0.00 | 90 | 995.6 |
| 20260905154250 | 71 | 352 | 1.7 | 5.2 | 0.00 | 0.00 | 0.00 | 91 | 995.6 |
| 20260905152748 | 71 | 68 | 1.7 | 3.5 | 0.00 | 0.00 | 0.00 | 90 | 995.3 |
| 20260905151244 | 71 | 26 | 0.9 | 1.7 | 0.00 | 0.00 | 0.00 | 91 | 995.5 |
| 20260905145740 | 70 | 334 | 1.7 | 3.5 | 0.00 | 0.00 | 0.00 | 92 | 995.5 |
| 20260905144236 | 70 | 6 | 0.9 | 2.6 | 0.00 | 0.00 | 0.00 | 93 | 995.4 |
| 20260905142733 | 71 | 21 | 1.7 | 2.6 | 0.00 | 0.00 | 0.00 | 93 | 995.3 |
| 20260905141231 | 71 | 58 | 1.7 | 3.5 | 0.00 | 0.00 | 0.00 | 93 | 995.0 |
| 20260905135726 | 70 | 172 | 0.9 | 2.6 | 0.00 | 0.00 | 0.00 | 95 | 994.8 |
| 20260905134226 | 70 | 151 | 0.0 | 2.6 | 0.00 | 0.00 | 0.00 | 96 | 994.9 |
| 20260905132721 | 69 | 30 | 3.5 | 5.2 | 0.00 | 0.00 | 0.00 | 98 | 994.8 |
| 20260905131219 | 69 | 358 | 3.5 | 5.2 | 0.00 | 0.00 | 0.00 | 99 | 994.5 |
| 20260905125714 | 69 | 50 | 2.6 | 2.6 | 0.00 | 0.00 | 0.00 | 99 | 994.6 |
| 20260905124213 | 69 | 173 | 0.9 | 5.2 | 0.00 | 0.00 | 0.00 | 99 | 994.5 |
| 20260905122710 | 69 | 47 | 2.6 | 3.5 | 0.00 | 0.00 | 0.00 | 99 | 994.1 |